FW3012 Weather Reports


time (UTC)temp
C
wind
direction
speed
KPH
gust
KPH
rain 1hr
cm
rain 24hr
cm
rain mn
cm
humidity
%
barometer
mb
20260508150041 28 315 12.9 25.7 0.00 0.00 0.00 26 994.1
20260508143045 28 315 12.9 22.5 0.00 0.00 0.00 25 994.2
20260508140040 28 315 14.5 27.4 0.00 0.00 0.00 23 994.1
20260508130042 29 293 11.3 25.7 0.00 0.00 0.00 24 994.3
20260508123043 30 293 14.5 30.6 0.00 0.00 0.00 24 994.4
20260508120042 30 315 11.3 22.5 0.00 0.00 0.00 24 994.5
20260508113042 28 315 8.0 24.1 0.00 0.00 0.00 25 994.7
20260508110042 30 293 9.7 20.9 0.00 0.00 0.00 25 994.8
20260508103042 29 315 6.4 17.7 0.00 0.00 0.00 23 994.8
20260508100045 28 338 8.0 24.1 0.00 0.00 0.00 24 994.9
20260508093044 29 338 8.0 19.3 0.00 0.00 0.00 25 994.8
20260508090041 29 338 11.3 20.9 0.00 0.00 0.00 26 995.0
20260508083413 28 338 12.9 22.5 0.00 0.00 0.00 26 995.2
20260508080041 28 338 11.3 24.1 0.00 0.00 0.00 29 995.2
20260508073102 27 338 11.3 20.9 0.00 0.00 0.00 33 995.3
20260508070041 26 338 12.9 20.9 0.00 0.00 0.00 36 995.2
20260508063044 26 338 12.9 22.5 0.00 0.00 0.00 35 995.1
20260508060201 25 338 11.3 20.9 0.00 0.00 0.00 38 994.9
20260508053041 23 338 8.0 20.9 0.00 0.00 0.00 36 994.8
20260508050041 22 315 8.0 16.1 0.00 0.00 0.00 40 994.6
20260508043041 20 315 6.4 12.9 0.00 0.00 0.00 44 994.6
20260508040433 18 315 6.4 17.7 0.00 0.00 0.00 48 994.6
20260508033041 17 293 6.4 12.9 0.00 0.00 0.00 50 994.4
20260508030041 16 293 6.4 12.9 0.00 0.00 0.00 51 994.2
20260508023041 16 293 6.4 11.3 0.00 0.00 0.00 49 994.2
20260508020141 15 293 6.4 12.9 0.00 0.00 0.00 50 994.0
20260508013041 15 293 6.4 12.9 0.00 0.00 0.00 51 993.8
20260508010041 16 293 6.4 12.9 0.00 0.00 0.00 51 993.8
20260508003041 15 293 4.8 9.7 0.00 0.00 0.00 55 993.8
20260508000040 16 293 4.8 9.7 0.00 0.00 0.00 55 993.7
20260507233040 16 270 3.2 9.7 0.00 0.00 0.00 54 993.6
20260507230040 17 270 3.2 11.3 0.00 0.00 0.00 53 993.6
20260507223040 17 270 1.6 6.4 0.00 0.00 0.00 53 993.6
20260507220042 17 248 1.6 4.8 0.00 0.00 0.00 53 993.7
20260507213042 17 113 1.6 3.2 0.00 0.00 0.00 57 993.8
20260507210042 17 68 3.2 14.5 0.00 0.00 0.00 53 994.0
20260507203041 18 225 1.6 3.2 0.00 0.00 0.00 51 993.5
20260507200201 20 225 1.6 6.4 0.00 0.00 0.00 46 993.6
20260507193044 21 225 1.6 8.0 0.00 0.00 0.00 42 993.5
20260507190141 23 180 4.8 16.1 0.00 0.00 0.00 38 993.3
20260507183041 25 270 3.2 16.1 0.00 0.00 0.00 30 993.1
20260507180436 23 293 3.2 22.5 0.00 0.00 0.00 36 993.3
20260507173041 22 0.0 3.2 0.00 0.00 0.00 49 993.2
20260507170041 23 0.0 3.2 0.00 0.00 0.00 40 992.9
20260507163041 25 0.0 4.8 0.00 0.00 0.00 39 992.8
20260507160041 26 0.0 3.2 0.00 0.00 0.00 33 992.7
20260507153040 27 338 1.6 6.4 0.00 0.00 0.00 29 992.7